Tracking 35051 objects as of 17-Aug-2026
HD Live streaming from Space Station
objects crossing your sky now

IONOSFERA-M 02

Track IONOSFERA-M 02 now!
10-day predictions


NORAD ID: 61736
Int'l Code: 2024-199B
Launch date: November 4, 2024
Source: Commonwealth of Independent States (former USSR) (CIS)
Launch site: VOSTOCHNY COSMODROME (VOSTO)
Your satellite tracking list
Your tracking list is empty




NASA's NSSDC Master Catalog

Two Line Element Set (TLE):
1 61736U 24199B   26229.62226034  .00000014  00000-0  25967-4 0  9992
2 61736  98.7076 102.0305 0001738 109.7256 250.4110 14.22767366139563
Source of the keplerian elements: AFSPC